This demonstration page uses our WeatherBlox Daily Observations layout. Learn more.

38.89511, -77.03637

Hourly Observations for August 5, 2015

Temp ( °F °C ) Dew Point ( °F °C ) Humidity (%) Winds ( mph kmh ) Pressure ( in mb ) Visibility ( mi km ) Precip ( " mm )
12:52 am 00:52 Partly Cloudy 79 26 70 21 74 74 NW 7 11 29.94 1014 10 16.09344 0 0
1:52 am 01:52 Mostly Cloudy 79 26 70 21 74 74 NW 7 11 29.94 1014 10 16.09344 0 0
2:52 am 02:52 Cloudy 77 25 70 21 79 79 NNW 6 9 29.94 1014 10 16.09344 0 0
3:52 am 03:52 Mostly Cloudy 77 25 70 21 79 79 N 5 7 29.94 1014 10 16.09344 0 0
4:52 am 04:52 Cloudy 75 24 70 21 83 83 NNW 3 6 29.94 1014 10 16.09344 0 0
5:52 am 05:52 Cloudy 77 25 70 21 79 79 Calm 29.94 1014 10 16.09344 0 0
6:52 am 06:52 Mostly Cloudy 75 24 70 21 83 83 Calm 29.94 1014 10 16.09344 0 0
7:52 am 07:52 Mostly Cloudy 75 24 68 20 78 78 Calm 29.97 1015 10 16.09344 0 0
8:52 am 08:52 Mostly Cloudy 82 28 70 21 66 66 Calm 29.97 1015 10 16.09344 0 0
9:52 am 09:52 Partly Cloudy 84 29 68 20 58 58 Calm 29.97 1015 10 16.09344 0 0
10:52 am 10:52 Partly Cloudy 88 31 64 18 46 46 WNW 7 11 30 1016 10 16.09344 0 0
11:52 am 11:52 Partly Cloudy 90 32 63 17 41 41 NNW 7 11 29.97 1015 10 16.09344 0 0
12:52 pm 12:52 Partly Cloudy 90 32 61 16 38 38 WNW 12 19 29.97 1015 10 16.09344 0 0
1:52 pm 13:52 Partly Cloudy 91 33 61 16 36 36 NW 7 11 29.94 1014 10 16.09344 0 0
2:52 pm 14:52 Partly Cloudy 90 32 57 14 33 33 W 10 17 29.94 1014 10 16.09344 0 0
3:52 pm 15:52 Partly Cloudy 91 33 59 15 34 34 WNW 14 22 29.94 1014 10 16.09344 0 0
4:52 pm 16:52 Partly Cloudy 93 34 57 14 30 30 WNW 13 20 29.91 1013 10 16.09344 0 0
5:52 pm 17:52 Mostly Sunny 91 33 57 14 32 32 NW 10 17 29.91 1013 10 16.09344 0 0
6:52 pm 18:52 Mostly Sunny 90 32 59 15 36 36 N 10 17 29.91 1013 10 16.09344 0 0
7:52 pm 19:52 Partly Cloudy 88 31 57 14 35 35 NW 6 9 29.94 1014 10 16.09344 0 0
8:52 pm 20:52 Partly Cloudy 88 31 55 13 33 33 NW 7 11 29.94 1014 10 16.09344 0 0
9:52 pm 21:52 Mostly Cloudy 86 30 55 13 35 35 NW 8 13 29.97 1015 10 16.09344 0 0
10:52 pm 22:52 Mostly Cloudy 82 28 59 15 45 45 N 8 13 29.97 1015 10 16.09344 0 0
11:52 pm 23:52 Mostly Cloudy 81 27 61 16 51 51 N 7 11 30 1016 10 16.09344 0 0

Powered by AerisWeather